Regional Weather Roundup
Issued by NWS

Home | Current Version | Previous Version | Text Only | Print | Product List | Glossary Off
Versions: 1 2 3 4 5 6 7 8 9 10 11 12 13 14 15 16 17 18 19 20 21 22 23 24 25 26 27 28 29 30 31 32 33 34 35 36 37 38 39 40 41 42 43 44 45 46 47 48 49 50

000
ASUS43 KLOT 070108
RWRIL

ILLINOIS REGIONAL WEATHER ROUNDUP
NATIONAL WEATHER SERVICE CHICAGO/ROMEOVILLE IL
700 PM CST SAT FEB 06 2016

NOTE: "FAIR" INDICATES FEW OR NO CLOUDS BELOW 12,000 FEET WITH NO
SIGNIFICANT WEATHER AND/OR OBSTRUCTIONS TO VISIBILITY.

* THESE STATIONS ARE NOT UNDER NWS QUALITY CONTROL. THEY ALSO MAY NOT
  REPORT WEATHER SUCH AS PRECIPITATION OR FOG.

ILZ001-002-007-009-015-016-024-070200-
NORTHWEST ILLINOIS

CITY           SKY/WX    TMP DP  RH WIND       PRES   REMARKS
MOLINE         CLEAR     29  25  85 CALM      30.12F
STERLING*      CLEAR     30  27  86 CALM      30.11F
SAVANNA*       CLEAR     29  28  94 SE5       30.12F WCI  24
$$

ILZ003-004-008-010-011-017-018-070200-
NORTH CENTRAL ILLINOIS

CITY           SKY/WX    TMP DP  RH WIND       PRES   REMARKS
ROCKFORD       PTCLDY    31  26  82 W6        30.15S WCI  25
FREEPORT*      CLEAR     29  27  92 CALM      30.14F
ROCHELLE*      CLEAR     32  30  94 W3        30.13S
DE KALB*       CLEAR     32  29  88 SW6       30.13F WCI  27
PERU*          CLEAR     22  13  68 SW6       30.15S WCI  15
$$

ILZ005-006-012>014-019>023-070200-
NORTHEAST ILLINOIS

CITY           SKY/WX    TMP DP  RH WIND       PRES   REMARKS
CHICAGO-OHARE  CLEAR     33  27  78 S6        30.12F WCI  28
CHICAGO-MIDWAY CLEAR     38  27  64 S6        30.14F WCI  33
AURORA         CLEAR     35  29  78 S6        30.13F WCI  30
LANSING*       CLEAR     31  27  84 S7        30.16F WCI  25
JOLIET*        CLEAR     32  28  86 S3        30.15F
WAUKEGAN       CLEAR     30  26  85 SW3       30.11F
DUPAGE AIRPORT CLEAR     32  25  75 S5        30.12F WCI  27
KANKAKEE*      CLEAR     33  29  86 S6        30.17S WCI  28
WHEELING       CLEAR     34  27  75 S6        30.13F WCI  29
MORRIS*          N/A     36  30  78 S5        30.12F WCI  32
ROMEOVILLE*    CLEAR     33  27  79 S6        30.14F WCI  28
NORTHERLY ISL    N/A     38  28  68 S3          N/A
$$

LMZ740>746-070200-
SOUTHERN LAKE MICHIGAN

STATION/POSITION SKY/WX   TEMP    WIND        PRES    VSBY  WAVE
                          AIR SEA DIR/SP/G                  HT/PER
                          (F)     (DEG/KT/KT) (MB)    (MI)  (FT/S)
HARRISON CRIB              42     210/ 12/ 15   N/A
BURNHAM HARBOR             38     170/  4/  6   N/A
CALUMET HARBOR             38     180/  3/  4 1020.5R
BURNS HARBOR               37     190/  5/  6 1022.0S
MICHIGAN CITY              38     170/  7/  8   N/A
$$

ILZ025>027-034>036-040-047-049-050-058-095>099-070200-
WEST-CENTRAL ILLINOIS

CITY           SKY/WX    TMP DP  RH WIND       PRES   REMARKS
QUINCY         CLEAR     40  25  55 W7        30.16S
GALESBURG*     CLEAR     35  29  78 S3        30.14S
MACOMB*        CLEAR     36  29  75 SW5       30.17S WCI  32
JACKSONVILLE*  CLEAR     44  31  62 SW6       30.16F
PITTSFIELD*    CLEAR     43  29  56 SW5       30.17F
$$

ILZ028>032-037-038-041>044-048-051>054-059>061-070200-
CENTRAL ILLINOIS

CITY           SKY/WX    TMP DP  RH WIND       PRES   REMARKS
PONTIAC        CLEAR     35  32  88 S5        30.17S WCI  31
BLOOMINGTON    CLEAR     34  31  89 SW5       30.17S WCI  30
DECATUR        CLEAR     38  31  76 SW6       30.17F WCI  33
PEORIA         CLEAR     37  25  61 CALM      30.15F
LACON*         CLEAR     34  25  70 CALM      30.14F
LINCOLN*       CLEAR     37  32  81 S3        30.17S
SPRINGFIELD    CLEAR     40  30  67 S6        30.17F
TAYLORVILLE    CLEAR     39  32  75 S7        30.18S WCI  34
$$

ILZ033-039-045-046-055>057-062-063-070200-
EAST-CENTRAL ILLINOIS

CITY           SKY/WX    TMP DP  RH WIND       PRES   REMARKS
CHAMPAIGN      CLEAR     35  30  82 S9        30.17F WCI  28
RANTOUL*       CLEAR     37  33  84 S5        30.17S WCI  33
MATTOON        CLEAR     42  28  57 S5        30.19S
PARIS*         CLEAR     33  29  85 S7        30.20F WCI  27
$$

ILZ079-100>102-070200-
SOUTHWEST ILLINOIS

CITY           SKY/WX    TMP DP  RH WIND       PRES   REMARKS
ALTON          CLEAR     46  27  46 SW7       30.19S
BELLEVILLE     CLEAR     44  28  53 CALM      30.19S
CAHOKIA*       CLEAR     46  25  43 S3        30.20S
SPARTA*        PTCLDY    48  23  37 S6        30.23R
$$

ILZ064>066-069>071-074>076-080>082-084>086-088>090-092>094-070200-
SOUTH-CENTRAL ILLINOIS

CITY           SKY/WX    TMP DP  RH WIND       PRES   REMARKS
CARBONDALE     CLEAR     44  22  41 S12       30.24S
CAIRO*         CLEAR     46  27  49 S7        30.28R
EFFINGHAM*     CLEAR     41  30  66 SE3       30.22S
MARION         CLEAR     45  21  39 S6        30.25S
MT. VERNON     CLEAR     37  25  60 CALM      30.23S
CENTRALIA*     PTCLDY    40  29  64 S8        30.21S
SALEM*         CLEAR     47  24  40 S5        30.21S
METROPOLIS*    CLEAR     45  26  46 S6        30.28S
$$

ILZ067-068-072-073-078-083-087-091-070200-
SOUTHEAST ILLINOIS

CITY           SKY/WX    TMP DP  RH WIND       PRES   REMARKS
LAWRENCEVILLE  CLEAR     35  27  72 S8        30.23F WCI  29
FLORA*         CLEAR     39  27  60 S5        30.22F
FAIRFIELD*     CLEAR     42  27  54 CALM      30.22S
HARRISBURG*    CLEAR     45  25  45 S6        30.26S
ROBINSON*      CLEAR     33  26  74 S6        30.23S WCI  28
CARMI*         CLEAR     40  30  67 S6        30.24S
$$

ABBREVIATIONS USED IN REMARKS
   TC - TEMPERATURE IN CELSIUS
  WCI - WIND CHILL INDEX
   HX - HEAT INDEX
  VSB - VISIBILITY
$$




USA.gov is the U.S. government's official web portal to all federal, state and local government web resources and services.